Overview Statistics Trail Chart Weather Telemetry Raw packets
 

This is the latest recevied weather packets stored in our database for station/object K2CAT. If no packets are shown the sender has not sent any weather packets the latest 10 day(s).

<< 92 93 94 95 96 97 98 >>
Time Temp. Humidity Pressure Rain* Wind** Luminosity Snow
1777016512 12.22° C 64% 1009.3 hPa 0 mm - 0 W/m² -
1777016209 12.22° C 63% 1009.2 hPa 0 mm - 0 W/m² -
1777015906 12.22° C 61% 1009.2 hPa 0 mm - 0 W/m² -
1777015603 12.22° C 61% 1009 hPa 0 mm - 0 W/m² -
1777015299 12.22° C 61% 1009.4 hPa 0 mm - 0 W/m² -
1777014995 12.22° C 59% 1009.4 hPa 0 mm - 0 W/m² -
1777014690 12.22° C 60% 1009.4 hPa 0 mm - 0 W/m² -
1777014386 12.22° C 61% 1009.3 hPa 0 mm - 0 W/m² -
1777014086 12.22° C 62% 1009.2 hPa 0 mm - 0 W/m² -
1777013783 12.22° C 62% 1009.3 hPa 0 mm - 0 W/m² -
1777013480 12.22° C 63% 1009.1 hPa 0 mm - 0 W/m² -
1777013178 12.22° C 63% 1009.3 hPa 0 mm - 0 W/m² -
1777012875 12.22° C 66% 1009.3 hPa 0 mm - 0 W/m² -
1777012575 12.22° C 63% 1009.5 hPa 0 mm - 0 W/m² -
1777012271 12.22° C 64% 1009.3 hPa 0 mm - 0 W/m² -
1777011967 12.22° C 66% 1009.4 hPa 0 mm - 0 W/m² -
1777011664 12.22° C 66% 1009.5 hPa 0 mm - 0 W/m² -
1777011360 12.22° C 69% 1009.5 hPa 0 mm - 0 W/m² -
1777011057 12.22° C 69% 1009.4 hPa 0 mm - 0 W/m² -
1777010754 12.78° C 67% 1009.2 hPa 0 mm - 0 W/m² -
1777010450 12.78° C 64% 1009.4 hPa 0 mm - 0 W/m² -
1777010146 12.78° C 60% 1009.5 hPa 0 mm - 0 W/m² -
1777009843 12.78° C 62% 1009.6 hPa 0 mm - 0 W/m² -
1777009540 12.78° C 62% 1009.8 hPa 0 mm - 0 W/m² -
1777009235 12.78° C 64% 1009.7 hPa 0 mm - 0 W/m² -

* Rain latest hour (hover to see other rain measurements)
** Current wind speed in m/s (hover to see current wind gust speed)